Tracking 17842 objects as of 29-August-2016
HD Live streaming from Space Station
objects crossing your sky now

SL-8 R/B

Track SL-8 R/B now!
10-day predictions


NORAD ID: 13950
Int'l Code: 1983-023B
Perigee: 954.7 km
Apogee: 1,009.9 km
Inclination: 83.0 °
Period: 104.6 minutes
Semi major axis: 7353 km
RCS: 4.7862 m2 (large)
Launch date: March 30, 1983
Source: Commonwealth of Independent States (former USSR) (CIS)
Launch site: PLESETSK MISSILE AND SPACE COMPLEX (PKMTR)

Note: This is a ROCKET BODY
Your satellite tracking list
Your tracking list is empty





NASA's NSSDC Master Catalog

Two Line Element Set (TLE):
1 13950U 83023B   16241.42035218  .00000050  00000-0  35101-4 0  9992
2 13950  82.9559 187.9102 0037536   9.0390 109.0922 13.76823897678728
Source of the keplerian elements: AFSPC

N2YO: 447